| time (UTC) | temp C | wind direction | speed KPH | gust KPH | rain 1hr cm | rain 24hr cm | rain mn cm | humidity % | barometer mb |
| 20260507170004 | 13 | 263 | 1.6 | 9.7 | 0.00 | 0.00 | 0.00 | 81 | 1029.5 |
| 20260507165502 | 13 | 263 | 3.2 | 9.7 | 0.00 | 0.00 | 0.00 | 81 | 1029.7 |
| 20260507164951 | 13 | 263 | 3.2 | 9.7 | 0.00 | 0.00 | 0.00 | 80 | 1029.7 |
| 20260507164433 | 13 | 263 | 1.6 | 9.7 | 0.00 | 0.00 | 0.00 | 80 | 1029.7 |
| 20260507163245 | 13 | 263 | 0.0 | 0.0 | 0.00 | 0.00 | 0.00 | 79 | 1029.8 |
| 20260507162736 | 13 | 263 | 0.0 | 3.2 | 0.00 | 0.00 | 0.00 | 79 | 1029.8 |
| 20260507162222 | 13 | 263 | 1.6 | 14.5 | 0.00 | 0.00 | 0.00 | 79 | 1029.8 |
| 20260507161721 | 13 | 263 | 3.2 | 14.5 | 0.00 | 0.00 | 0.00 | 79 | 1029.8 |
| 20260507160544 | 13 | 263 | 4.8 | 9.7 | 0.00 | 0.00 | 0.00 | 77 | 1030.0 |
| 20260507160051 | 13 | 263 | 4.8 | 9.7 | 0.00 | 0.00 | 0.00 | 76 | 1030.0 |
| 20260507155540 | 14 | 263 | 3.2 | 16.1 | 0.00 | 0.00 | 0.00 | 75 | 1030.0 |
| 20260507154407 | 14 | 263 | 6.4 | 19.3 | 0.00 | 0.00 | 0.00 | 74 | 1030.1 |
| 20260507153847 | 14 | 263 | 8.0 | 19.3 | 0.00 | 0.00 | 0.00 | 74 | 1030.1 |
| 20260507153350 | 14 | 263 | 6.4 | 19.3 | 0.00 | 0.00 | 0.00 | 73 | 1030.1 |
| 20260507152834 | 14 | 263 | 4.8 | 16.1 | 0.00 | 0.00 | 0.00 | 72 | 1029.9 |
| 20260507152327 | 14 | 263 | 4.8 | 14.5 | 0.00 | 0.00 | 0.00 | 72 | 1029.9 |
| 20260507151822 | 14 | 263 | 4.8 | 14.5 | 0.00 | 0.00 | 0.00 | 71 | 1029.9 |
| 20260507151308 | 14 | 263 | 4.8 | 14.5 | 0.00 | 0.00 | 0.00 | 71 | 1030.1 |
| 20260507150757 | 14 | 263 | 6.4 | 20.9 | 0.00 | 0.00 | 0.00 | 71 | 1030.1 |
| 20260507150242 | 14 | 263 | 6.4 | 20.9 | 0.00 | 0.00 | 0.00 | 71 | 1030.1 |
| 20260507145747 | 14 | 263 | 8.0 | 20.9 | 0.00 | 0.00 | 0.00 | 71 | 1030.1 |
| 20260507145240 | 14 | 263 | 8.0 | 20.9 | 0.00 | 0.00 | 0.00 | 71 | 1030.1 |
| 20260507144723 | 14 | 263 | 6.4 | 19.3 | 0.00 | 0.00 | 0.00 | 70 | 1030.1 |
| 20260507144217 | 14 | 263 | 4.8 | 12.9 | 0.00 | 0.00 | 0.00 | 70 | 1030.1 |
| 20260507143710 | 14 | 263 | 4.8 | 12.9 | 0.00 | 0.00 | 0.00 | 70 | 1030.1 |
| 20260507143207 | 14 | 263 | 4.8 | 12.9 | 0.00 | 0.00 | 0.00 | 70 | 1030.1 |
| 20260507142713 | 14 | 263 | 3.2 | 12.9 | 0.00 | 0.00 | 0.00 | 70 | 1030.1 |
| 20260507142216 | 13 | 263 | 1.6 | 6.4 | 0.00 | 0.00 | 0.00 | 70 | 1030.1 |
| 20260507141702 | 13 | 263 | 0.0 | 6.4 | 0.00 | 0.00 | 0.00 | 70 | 1030.1 |
| 20260507140633 | 13 | 263 | 1.6 | 8.0 | 0.00 | 0.00 | 0.00 | 70 | 1030.1 |
| 20260507140114 | 13 | 263 | 3.2 | 8.0 | 0.00 | 0.00 | 0.00 | 70 | 1030.1 |
| 20260507135610 | 13 | 263 | 1.6 | 8.0 | 0.00 | 0.00 | 0.00 | 70 | 1030.1 |
| 20260507133944 | 13 | 263 | 0.0 | 8.0 | 0.00 | 0.00 | 0.00 | 70 | 1030.2 |
| 20260507133431 | 13 | 263 | 1.6 | 8.0 | 0.00 | 0.00 | 0.00 | 71 | 1030.2 |
| 20260507132932 | 13 | 263 | 1.6 | 8.0 | 0.00 | 0.00 | 0.00 | 71 | 1030.2 |
| 20260507132438 | 13 | 263 | 0.0 | 3.2 | 0.00 | 0.00 | 0.00 | 71 | 1030.3 |
| 20260507131918 | 13 | 263 | 1.6 | 0.0 | 0.00 | 0.00 | 0.00 | 72 | 1030.3 |
| 20260507131359 | 13 | 263 | 1.6 | 8.0 | 0.00 | 0.00 | 0.00 | 72 | 1030.2 |
| 20260507130854 | 13 | 263 | 3.2 | 8.0 | 0.00 | 0.00 | 0.00 | 72 | 1030.2 |
| 20260507130334 | 13 | 263 | 1.6 | 8.0 | 0.00 | 0.00 | 0.00 | 72 | 1030.2 |
| 20260507125204 | 13 | 263 | 1.6 | 6.4 | 0.00 | 0.00 | 0.00 | 72 | 1030.2 |
| 20260507124650 | 13 | 263 | 1.6 | 12.9 | 0.00 | 0.00 | 0.00 | 73 | 1030.2 |
| 20260507124137 | 13 | 263 | 3.2 | 12.9 | 0.00 | 0.00 | 0.00 | 73 | 1030.6 |
| 20260507123000 | 13 | 263 | 3.2 | 12.9 | 0.00 | 0.00 | 0.00 | 73 | 1030.6 |
| 20260507122450 | 13 | 263 | 1.6 | 9.7 | 0.00 | 0.00 | 0.00 | 73 | 1030.6 |
| 20260507121937 | 13 | 263 | 3.2 | 9.7 | 0.00 | 0.00 | 0.00 | 72 | 1030.6 |
| 20260507121435 | 13 | 263 | 3.2 | 9.7 | 0.00 | 0.00 | 0.00 | 72 | 1030.6 |
| 20260507120919 | 13 | 263 | 1.6 | 9.7 | 0.00 | 0.00 | 0.00 | 72 | 1030.6 |
| 20260507120406 | 13 | 263 | 1.6 | 9.7 | 0.00 | 0.00 | 0.00 | 72 | 1030.6 |
| 20260507115849 | 13 | 263 | 3.2 | 9.7 | 0.00 | 0.00 | 0.00 | 71 | 1030.6 |
| 20260507115337 | 13 | 263 | 3.2 | 9.7 | 0.00 | 0.00 | 0.00 | 71 | 1030.6 |
| 20260507114845 | 13 | 263 | 3.2 | 9.7 | 0.00 | 0.00 | 0.00 | 71 | 1030.6 |
| 20260507114334 | 13 | 263 | 3.2 | 9.7 | 0.00 | 0.00 | 0.00 | 70 | 1030.6 |
| 20260507113226 | 13 | 263 | 3.2 | 8.0 | 0.00 | 0.00 | 0.00 | 70 | 1030.6 |
| 20260507112712 | 13 | 263 | 3.2 | 8.0 | 0.00 | 0.00 | 0.00 | 70 | 1030.6 |
| 20260507112202 | 13 | 263 | 0.0 | 8.0 | 0.00 | 0.00 | 0.00 | 69 | 1030.6 |
| 20260507111647 | 13 | 263 | 0.0 | 0.0 | 0.00 | 0.00 | 0.00 | 69 | 1030.6 |
| 20260507111150 | 13 | 263 | 0.0 | 6.4 | 0.00 | 0.00 | 0.00 | 68 | 1030.6 |
| 20260507110643 | 13 | 263 | 1.6 | 8.0 | 0.00 | 0.00 | 0.00 | 67 | 1030.6 |
| 20260507110144 | 13 | 263 | 1.6 | 8.0 | 0.00 | 0.00 | 0.00 | 67 | 1030.6 |
| 20260507105636 | 13 | 263 | 1.6 | 8.0 | 0.00 | 0.00 | 0.00 | 66 | 1030.5 |
| 20260507105128 | 13 | 263 | 1.6 | 8.0 | 0.00 | 0.00 | 0.00 | 65 | 1030.5 |
| 20260507104611 | 13 | 263 | 1.6 | 4.8 | 0.00 | 0.00 | 0.00 | 65 | 1030.5 |
| 20260507104109 | 13 | 263 | 1.6 | 4.8 | 0.00 | 0.00 | 0.00 | 65 | 1030.6 |
| 20260507103614 | 13 | 263 | 1.6 | 4.8 | 0.00 | 0.00 | 0.00 | 65 | 1030.6 |
| 20260507103100 | 13 | 263 | 0.0 | 4.8 | 0.00 | 0.00 | 0.00 | 65 | 1030.6 |
| 20260507101941 | 13 | 263 | 1.6 | 6.4 | 0.00 | 0.00 | 0.00 | 64 | 1030.6 |
| 20260507100833 | 13 | 263 | 3.2 | 17.7 | 0.00 | 0.00 | 0.00 | 64 | 1030.5 |
| 20260507100339 | 13 | 263 | 4.8 | 17.7 | 0.00 | 0.00 | 0.00 | 64 | 1030.5 |
| 20260507095820 | 13 | 263 | 4.8 | 17.7 | 0.00 | 0.00 | 0.00 | 64 | 1030.6 |
| 20260507094641 | 13 | 263 | 6.4 | 14.5 | 0.00 | 0.00 | 0.00 | 64 | 1030.6 |
| 20260507093525 | 13 | 263 | 3.2 | 8.0 | 0.00 | 0.00 | 0.00 | 64 | 1030.3 |
| 20260507093014 | 13 | 263 | 1.6 | 6.4 | 0.00 | 0.00 | 0.00 | 64 | 1030.3 |
| 20260507091902 | 13 | 263 | 3.2 | 9.7 | 0.00 | 0.00 | 0.00 | 64 | 1030.2 |
| 20260507091403 | 13 | 263 | 1.6 | 9.7 | 0.00 | 0.00 | 0.00 | 64 | 1030.2 |
| 20260507090901 | 13 | 263 | 3.2 | 9.7 | 0.00 | 0.00 | 0.00 | 63 | 1030.2 |
| 20260507085901 | 13 | 263 | 3.2 | 8.0 | 0.00 | 0.00 | 0.00 | 63 | 1030.1 |
| 20260507085342 | 13 | 263 | 3.2 | 8.0 | 0.00 | 0.00 | 0.00 | 63 | 1030.1 |
| 20260507084836 | 13 | 263 | 3.2 | 9.7 | 0.00 | 0.00 | 0.00 | 63 | 1030.1 |
| 20260507084320 | 14 | 263 | 3.2 | 9.7 | 0.00 | 0.00 | 0.00 | 63 | 1030.0 |
| 20260507083811 | 14 | 263 | 3.2 | 14.5 | 0.00 | 0.00 | 0.00 | 63 | 1030.0 |
| 20260507083251 | 14 | 263 | 3.2 | 14.5 | 0.00 | 0.00 | 0.00 | 63 | 1030.0 |
| 20260507082751 | 14 | 263 | 4.8 | 14.5 | 0.00 | 0.00 | 0.00 | 63 | 1029.9 |
| 20260507082255 | 14 | 263 | 4.8 | 11.3 | 0.00 | 0.00 | 0.00 | 63 | 1029.9 |
| 20260507081750 | 14 | 263 | 4.8 | 11.3 | 0.00 | 0.00 | 0.00 | 62 | 1029.9 |
| 20260507081257 | 14 | 263 | 4.8 | 11.3 | 0.00 | 0.00 | 0.00 | 62 | 1029.9 |
| 20260507080749 | 14 | 263 | 4.8 | 16.1 | 0.00 | 0.00 | 0.00 | 62 | 1029.9 |
| 20260507080231 | 14 | 263 | 4.8 | 16.1 | 0.00 | 0.00 | 0.00 | 62 | 1029.9 |
| 20260507075719 | 14 | 263 | 6.4 | 16.1 | 0.00 | 0.00 | 0.00 | 61 | 1029.8 |
| 20260507074619 | 14 | 263 | 4.8 | 25.7 | 0.00 | 0.00 | 0.00 | 60 | 1029.8 |
| 20260507074106 | 14 | 263 | 4.8 | 25.7 | 0.00 | 0.00 | 0.00 | 60 | 1029.9 |
| 20260507073601 | 14 | 263 | 8.0 | 25.7 | 0.00 | 0.00 | 0.00 | 59 | 1029.9 |
| 20260507073042 | 14 | 263 | 6.4 | 25.7 | 0.00 | 0.00 | 0.00 | 58 | 1029.9 |
| 20260507072536 | 14 | 263 | 4.8 | 16.1 | 0.00 | 0.00 | 0.00 | 58 | 1029.7 |
| 20260507072020 | 15 | 263 | 6.4 | 17.7 | 0.00 | 0.00 | 0.00 | 57 | 1029.7 |
| 20260507071521 | 15 | 263 | 8.0 | 17.7 | 0.00 | 0.00 | 0.00 | 57 | 1029.7 |
| 20260507071030 | 15 | 263 | 4.8 | 17.7 | 0.00 | 0.00 | 0.00 | 58 | 1029.7 |
| 20260507070021 | 15 | 263 | 6.4 | 24.1 | 0.00 | 0.00 | 0.00 | 59 | 1029.7 |
| 20260507065522 | 15 | 263 | 6.4 | 24.1 | 0.00 | 0.00 | 0.00 | 59 | 1029.8 |
| 20260507065030 | 15 | 263 | 8.0 | 24.1 | 0.00 | 0.00 | 0.00 | 58 | 1029.8 |
| 20260507064511 | 15 | 263 | 9.7 | 24.1 | 0.00 | 0.00 | 0.00 | 58 | 1029.8 |
| 20260507064014 | 15 | 263 | 8.0 | 22.5 | 0.00 | 0.00 | 0.00 | 55 | 1029.6 |
| 20260507063517 | 15 | 263 | 8.0 | 22.5 | 0.00 | 0.00 | 0.00 | 54 | 1029.6 |
| 20260507063025 | 15 | 263 | 8.0 | 22.5 | 0.00 | 0.00 | 0.00 | 53 | 1029.6 |
| 20260507062526 | 16 | 263 | 6.4 | 19.3 | 0.00 | 0.00 | 0.00 | 53 | 1029.6 |
| 20260507062027 | 16 | 263 | 6.4 | 17.7 | 0.00 | 0.00 | 0.00 | 53 | 1029.6 |
| 20260507061522 | 16 | 263 | 6.4 | 17.7 | 0.00 | 0.00 | 0.00 | 52 | 1029.6 |
| 20260507061016 | 16 | 263 | 3.2 | 17.7 | 0.00 | 0.00 | 0.00 | 54 | 1029.6 |
| 20260507055909 | 15 | 263 | 6.4 | 17.7 | 0.00 | 0.00 | 0.00 | 54 | 1029.6 |
| 20260507055416 | 15 | 263 | 6.4 | 17.7 | 0.00 | 0.00 | 0.00 | 54 | 1029.7 |
| 20260507054858 | 15 | 263 | 3.2 | 16.1 | 0.00 | 0.00 | 0.00 | 55 | 1029.7 |
| 20260507054357 | 15 | 263 | 4.8 | 16.1 | 0.00 | 0.00 | 0.00 | 56 | 1029.8 |
| 20260507052600 | 15 | 263 | 6.4 | 19.3 | 0.00 | 0.00 | 0.00 | 55 | 1029.7 |
| 20260507052059 | 15 | 263 | 9.7 | 19.3 | 0.00 | 0.00 | 0.00 | 54 | 1029.7 |
| 20260507051542 | 15 | 263 | 9.7 | 19.3 | 0.00 | 0.00 | 0.00 | 54 | 1029.7 |
| 20260507051050 | 15 | 263 | 8.0 | 17.7 | 0.00 | 0.00 | 0.00 | 53 | 1029.6 |
| 20260507050557 | 15 | 263 | 6.4 | 17.7 | 0.00 | 0.00 | 0.00 | 53 | 1029.6 |
| 20260507050052 | 15 | 263 | 4.8 | 14.5 | 0.00 | 0.00 | 0.00 | 56 | 1029.6 |
| 20260507045555 | 15 | 263 | 4.8 | 17.7 | 0.00 | 0.00 | 0.00 | 57 | 1029.9 |
| 20260507045044 | 15 | 263 | 4.8 | 17.7 | 0.00 | 0.00 | 0.00 | 57 | 1029.9 |
| 20260507044527 | 15 | 263 | 6.4 | 19.3 | 0.00 | 0.00 | 0.00 | 57 | 1029.9 |
| 20260507044024 | 15 | 263 | 9.7 | 19.3 | 0.00 | 0.00 | 0.00 | 55 | 1029.8 |
| 20260507043512 | 15 | 263 | 9.7 | 20.9 | 0.00 | 0.00 | 0.00 | 54 | 1029.8 |
| 20260507043011 | 15 | 263 | 9.7 | 20.9 | 0.00 | 0.00 | 0.00 | 54 | 1029.8 |
| 20260507042501 | 15 | 263 | 8.0 | 20.9 | 0.00 | 0.00 | 0.00 | 54 | 1029.9 |
| 20260507041319 | 15 | 263 | 8.0 | 19.3 | 0.00 | 0.08 | 0.00 | 55 | 1030.1 |
| 20260507040807 | 15 | 263 | 9.7 | 22.5 | 0.00 | 0.08 | 0.00 | 54 | 1030.1 |
| 20260507040313 | 15 | 263 | 8.0 | 22.5 | 0.00 | 0.08 | 0.00 | 53 | 1030.1 |
| 20260507035753 | 16 | 263 | 8.0 | 22.5 | 0.00 | 0.08 | 0.00 | 52 | 1029.9 |
| 20260507035245 | 16 | 263 | 8.0 | 22.5 | 0.00 | 0.08 | 0.00 | 51 | 1029.9 |
| 20260507034736 | 16 | 263 | 8.0 | 22.5 | 0.00 | 0.08 | 0.00 | 49 | 1029.9 |
| 20260507034245 | 16 | 263 | 9.7 | 22.5 | 0.00 | 0.08 | 0.00 | 50 | 1029.9 |
| 20260507033728 | 16 | 263 | 9.7 | 22.5 | 0.00 | 0.08 | 0.00 | 52 | 1029.9 |
| 20260507033234 | 16 | 263 | 11.3 | 22.5 | 0.00 | 0.08 | 0.00 | 52 | 1029.9 |
| 20260507032735 | 15 | 263 | 9.7 | 19.3 | 0.00 | 0.08 | 0.00 | 53 | 1030.1 |
| 20260507032223 | 15 | 263 | 6.4 | 19.3 | 0.00 | 0.08 | 0.00 | 54 | 1030.1 |
| 20260507031733 | 15 | 263 | 6.4 | 19.3 | 0.00 | 0.08 | 0.00 | 55 | 1030.1 |
| 20260507031234 | 15 | 263 | 8.0 | 19.3 | 0.00 | 0.10 | 0.00 | 54 | 1030.1 |
| 20260507030734 | 15 | 263 | 8.0 | 19.3 | 0.00 | 0.13 | 0.00 | 54 | 1030.1 |
| 20260507030232 | 15 | 263 | 6.4 | 19.3 | 0.00 | 0.13 | 0.00 | 53 | 1030.1 |
| 20260507025726 | 15 | 263 | 4.8 | 17.7 | 0.00 | 0.18 | 0.00 | 54 | 1030.2 |
| 20260507025208 | 15 | 263 | 4.8 | 17.7 | 0.00 | 0.23 | 0.00 | 58 | 1030.2 |
| 20260507024014 | 15 | 263 | 6.4 | 17.7 | 0.00 | 0.25 | 0.00 | 57 | 1030.4 |
| 20260507023456 | 15 | 263 | 4.8 | 14.5 | 0.00 | 0.25 | 0.00 | 58 | 1030.4 |
| 20260507023003 | 15 | 263 | 4.8 | 14.5 | 0.00 | 0.25 | 0.00 | 57 | 1030.4 |
| 20260507022451 | 15 | 263 | 4.8 | 16.1 | 0.00 | 0.25 | 0.00 | 57 | 1030.6 |
| 20260507020707 | 15 | 263 | 6.4 | 17.7 | 0.00 | 0.25 | 0.00 | 58 | 1030.6 |
| 20260507020158 | 15 | 263 | 8.0 | 17.7 | 0.00 | 0.25 | 0.00 | 58 | 1030.6 |
| 20260507015649 | 15 | 263 | 6.4 | 14.5 | 0.00 | 0.25 | 0.00 | 59 | 1030.7 |
| 20260507014527 | 14 | 263 | 8.0 | 16.1 | 0.00 | 0.25 | 0.00 | 56 | 1030.7 |
| 20260507014020 | 14 | 263 | 6.4 | 19.3 | 0.00 | 0.25 | 0.00 | 56 | 1030.7 |
| 20260507013521 | 14 | 263 | 8.0 | 19.3 | 0.00 | 0.25 | 0.00 | 56 | 1030.7 |
| 20260507013019 | 14 | 263 | 9.7 | 19.3 | 0.00 | 0.25 | 0.00 | 55 | 1030.7 |
| 20260507012523 | 15 | 263 | 8.0 | 19.3 | 0.00 | 0.25 | 0.00 | 54 | 1030.5 |
| 20260507011347 | 15 | 263 | 6.4 | 14.5 | 0.00 | 0.25 | 0.00 | 54 | 1030.2 |
| 20260507010837 | 15 | 263 | 4.8 | 16.1 | 0.00 | 0.25 | 0.00 | 54 | 1030.2 |
| 20260507010343 | 15 | 263 | 4.8 | 16.1 | 0.00 | 0.25 | 0.00 | 54 | 1030.2 |
| 20260507005845 | 15 | 263 | 4.8 | 16.1 | 0.00 | 0.25 | 0.00 | 55 | 1030.2 |
| 20260507005348 | 15 | 263 | 6.4 | 16.1 | 0.00 | 0.25 | 0.00 | 55 | 1030.2 |
| 20260507004841 | 15 | 263 | 4.8 | 14.5 | 0.00 | 0.25 | 0.00 | 56 | 1030.2 |
| 20260507004343 | 15 | 263 | 4.8 | 14.5 | 0.00 | 0.25 | 0.00 | 57 | 1030.2 |
| 20260507003828 | 15 | 263 | 4.8 | 14.5 | 0.00 | 0.25 | 0.00 | 58 | 1030.2 |
| 20260507003317 | 14 | 263 | 6.4 | 14.5 | 0.00 | 0.25 | 0.00 | 60 | 1030.2 |
| 20260507002804 | 14 | 263 | 6.4 | 14.5 | 0.00 | 0.25 | 0.00 | 60 | 1030.2 |
| 20260507002311 | 14 | 263 | 4.8 | 19.3 | 0.00 | 0.25 | 0.00 | 61 | 1030.2 |
| 20260507001751 | 13 | 263 | 3.2 | 19.3 | 0.00 | 0.25 | 0.00 | 63 | 1030.2 |
| 20260507001246 | 13 | 263 | 6.4 | 19.3 | 0.00 | 0.25 | 0.00 | 64 | 1030.2 |
| 20260507000750 | 13 | 263 | 6.4 | 19.3 | 0.00 | 0.25 | 0.00 | 65 | 1030.2 |
| 20260506235750 | 13 | 263 | 6.4 | 14.5 | 0.00 | 0.25 | 0.00 | 68 | 1030.2 |
| 20260506235255 | 13 | 263 | 4.8 | 14.5 | 0.00 | 0.25 | 0.00 | 69 | 1030.2 |
| 20260506233443 | 12 | 263 | 0.0 | 8.0 | 0.00 | 0.25 | 0.00 | 79 | 1030.1 |
| 20260506232936 | 11 | 263 | 0.0 | 0.0 | 0.00 | 0.25 | 0.00 | 81 | 1030.1 |
| 20260506232432 | 11 | 263 | 0.0 | 0.0 | 0.00 | 0.25 | 0.00 | 82 | 1030.1 |
| 20260506231914 | 10 | 263 | 0.0 | 0.0 | 0.00 | 0.25 | 0.00 | 83 | 1030.1 |
| 20260506230744 | 10 | 263 | 0.0 | 0.0 | 0.00 | 0.25 | 0.00 | 83 | 1030.1 |
| 20260506230250 | 10 | 263 | 0.0 | 0.0 | 0.00 | 0.25 | 0.00 | 84 | 1030.1 |
| 20260506225737 | 10 | 263 | 0.0 | 0.0 | 0.00 | 0.25 | 0.00 | 84 | 1029.7 |
| 20260506225236 | 10 | 263 | 0.0 | 0.0 | 0.00 | 0.25 | 0.00 | 83 | 1029.7 |
| 20260506224718 | 10 | 263 | 0.0 | 0.0 | 0.00 | 0.25 | 0.00 | 83 | 1029.7 |
| 20260506224213 | 10 | 263 | 0.0 | 0.0 | 0.00 | 0.25 | 0.00 | 84 | 1029.4 |
| 20260506223715 | 10 | 263 | 0.0 | 0.0 | 0.00 | 0.25 | 0.00 | 84 | 1029.4 |
| 20260506223207 | 9 | 263 | 0.0 | 0.0 | 0.00 | 0.25 | 0.00 | 84 | 1029.4 |
| 20260506222650 | 9 | 263 | 0.0 | 0.0 | 0.00 | 0.25 | 0.00 | 85 | 1029.2 |
| 20260506222147 | 9 | 263 | 0.0 | 0.0 | 0.00 | 0.25 | 0.00 | 84 | 1029.2 |
| 20260506221036 | 8 | 263 | 0.0 | 0.0 | 0.00 | 0.25 | 0.00 | 83 | 1029.1 |
| 20260506220539 | 8 | 263 | 0.0 | 1.6 | 0.00 | 0.25 | 0.00 | 83 | 1029.1 |
| 20260506220039 | 8 | 263 | 0.0 | 0.0 | 0.00 | 0.25 | 0.00 | 82 | 1029.1 |
| 20260506215545 | 8 | 263 | 0.0 | 0.0 | 0.00 | 0.25 | 0.00 | 82 | 1028.9 |
| 20260506215045 | 8 | 263 | 0.0 | 0.0 | 0.00 | 0.28 | 0.00 | 81 | 1028.9 |
| 20260506214537 | 8 | 263 | 0.0 | 0.0 | 0.00 | 0.28 | 0.00 | 80 | 1028.9 |
| 20260506213408 | 9 | 263 | 0.0 | 0.0 | 0.00 | 0.28 | 0.00 | 79 | 1028.7 |
| 20260506212849 | 9 | 263 | 0.0 | 0.0 | 0.00 | 0.28 | 0.00 | 78 | 1028.6 |
| 20260506212340 | 9 | 263 | 0.0 | 0.0 | 0.00 | 0.30 | 0.00 | 77 | 1028.6 |
| 20260506211232 | 9 | 263 | 0.0 | 0.0 | 0.00 | 0.30 | 0.00 | 76 | 1028.4 |
| 20260506210731 | 9 | 263 | 0.0 | 1.6 | 0.00 | 0.30 | 0.00 | 76 | 1028.4 |
| 20260506210224 | 10 | 263 | 0.0 | 1.6 | 0.00 | 0.30 | 0.00 | 75 | 1028.4 |
| 20260506205710 | 10 | 263 | 0.0 | 0.0 | 0.00 | 0.30 | 0.00 | 74 | 1028.2 |
| 20260506205154 | 10 | 263 | 0.0 | 0.0 | 0.00 | 0.30 | 0.00 | 74 | 1028.2 |
| 20260506204647 | 10 | 263 | 0.0 | 0.0 | 0.00 | 0.30 | 0.00 | 73 | 1028.2 |
| 20260506204141 | 10 | 263 | 0.0 | 0.0 | 0.00 | 0.30 | 0.00 | 73 | 1028.0 |
| 20260506203632 | 10 | 263 | 0.0 | 0.0 | 0.00 | 0.30 | 0.00 | 73 | 1028.0 |
| 20260506203121 | 10 | 263 | 0.0 | 0.0 | 0.00 | 0.30 | 0.00 | 74 | 1028.0 |
| 20260506201959 | 10 | 263 | 0.0 | 0.0 | 0.00 | 0.30 | 0.00 | 73 | 1028.0 |
| 20260506201505 | 11 | 263 | 0.0 | 0.0 | 0.00 | 0.30 | 0.00 | 73 | 1028.0 |
| 20260506201008 | 11 | 263 | 0.0 | 3.2 | 0.00 | 0.30 | 0.00 | 73 | 1028.0 |
| 20260506200518 | 11 | 263 | 1.6 | 4.8 | 0.00 | 0.30 | 0.00 | 73 | 1028.0 |
| 20260506200025 | 11 | 263 | 1.6 | 4.8 | 0.00 | 0.30 | 0.00 | 73 | 1028.0 |
| 20260506195511 | 11 | 263 | 1.6 | 6.4 | 0.00 | 0.30 | 0.00 | 73 | 1027.9 |
| 20260506195016 | 11 | 263 | 1.6 | 6.4 | 0.00 | 0.30 | 0.00 | 73 | 1027.9 |
| 20260506194504 | 11 | 263 | 3.2 | 9.7 | 0.00 | 0.30 | 0.00 | 73 | 1027.9 |
| 20260506194005 | 11 | 263 | 4.8 | 9.7 | 0.00 | 0.30 | 0.00 | 73 | 1027.6 |
| 20260506193510 | 11 | 263 | 4.8 | 17.7 | 0.00 | 0.30 | 0.00 | 72 | 1027.6 |
| 20260506193004 | 11 | 263 | 6.4 | 17.7 | 0.00 | 0.30 | 0.00 | 72 | 1027.6 |
| 20260506192510 | 11 | 263 | 8.0 | 17.7 | 0.00 | 0.30 | 0.00 | 72 | 1027.6 |
| 20260506192007 | 11 | 263 | 4.8 | 17.7 | 0.00 | 0.30 | 0.00 | 72 | 1027.6 |
| 20260506191513 | 11 | 263 | 3.2 | 8.0 | 0.00 | 0.30 | 0.00 | 72 | 1027.6 |
| 20260506190336 | 11 | 263 | 1.6 | 4.8 | 0.00 | 0.30 | 0.00 | 71 | 1027.4 |
| 20260506185201 | 11 | 263 | 1.6 | 8.0 | 0.00 | 0.30 | 0.00 | 70 | 1027.0 |
| 20260506183352 | 11 | 263 | 6.4 | 19.3 | 0.00 | 0.30 | 0.00 | 69 | 1027.0 |
| 20260506182837 | 12 | 263 | 6.4 | 19.3 | 0.00 | 0.30 | 0.00 | 68 | 1027.0 |
| 20260506182317 | 12 | 263 | 6.4 | 19.3 | 0.00 | 0.30 | 0.00 | 68 | 1027.0 |
| 20260506181812 | 12 | 263 | 6.4 | 19.3 | 0.00 | 0.30 | 0.00 | 68 | 1027.0 |
| 20260506181252 | 12 | 263 | 4.8 | 12.9 | 0.00 | 0.30 | 0.00 | 68 | 1027.0 |
| 20260506180141 | 11 | 263 | 3.2 | 9.7 | 0.00 | 0.30 | 0.00 | 67 | 1027.0 |
| 20260506175627 | 11 | 263 | 3.2 | 9.7 | 0.00 | 0.30 | 0.00 | 67 | 1027.0 |
| 20260506175120 | 11 | 263 | 3.2 | 9.7 | 0.00 | 0.30 | 0.00 | 68 | 1027.0 |
| 20260506174627 | 11 | 263 | 3.2 | 6.4 | 0.00 | 0.30 | 0.00 | 68 | 1027.0 |
| 20260506174111 | 11 | 263 | 3.2 | 8.0 | 0.00 | 0.30 | 0.00 | 68 | 1027.0 |
| 20260506173619 | 11 | 263 | 3.2 | 8.0 | 0.00 | 0.30 | 0.00 | 69 | 1027.0 |
| 20260506173108 | 11 | 263 | 3.2 | 9.7 | 0.00 | 0.30 | 0.00 | 69 | 1027.0 |
| 20260506172615 | 11 | 263 | 3.2 | 9.7 | 0.00 | 0.30 | 0.00 | 70 | 1027.0 |
| 20260506172123 | 11 | 263 | 3.2 | 9.7 | 0.00 | 0.30 | 0.00 | 71 | 1027.0 |
| 20260506170945 | 11 | 263 | 0.0 | 1.6 | 0.00 | 0.30 | 0.00 | 71 | 1027.0 |
| 20260506170428 | 11 | 263 | 0.0 | 0.0 | 0.00 | 0.30 | 0.00 | 71 | 1027.0 |